User: anonymous   Login
Location: Santa Teresa Spring
(37.2333°N, 121.7000°W)
Time: 10:17:33
(UTC-07:00)
Language:

Cosmos 1633 - Orbit

View from above orbital plane
View from above orbital plane
View from above satellite
View from above satellite

Ground track
Ground track

The orbit data is extracted from the following two-line orbital elements,

1 15592U 85020A   15239.81421166  .00004088  00000-0  16411-3 0  9992
2 15592 082.5367 258.3596 0014567 350.1991 066.9391 15.24591549663682
Epoch (UTC): 27 August 2015 19:32:27
Eccentricity: 0.0014567
inclination: 82.5367°
perigee height: 482 km
apogee height: 502 km
right ascension of ascending node: 258.3596°
argument of perigee: 350.1991°
revolutions per day: 15.24591549
mean anomaly at epoch: 66.9391°
orbit number at epoch: 66368

The dashed part of the orbit path shows where the satellite is in the earth's shadow,  

DLR